Location: Newark
(37.4028°N, 22.1369°E)
Time: 07:03:44
(UTC+00:00)

N. Korean satellite - Visible Passes

Search period start: 23 September 2020 00:00
Search period end: 03 October 2020 00:00
Orbit: 455 x 503 km, 97.2° (Epoch: 22 September)

Date Brightness Start Highest point End Pass type
(mag) Time Alt. Az. Time Alt. Az. Time Alt. Az.
23 Sep 9.8 03:08:34 10° ENE 03:10:41 15° E 03:12:48 10° SE visible
25 Sep 7.6 03:48:37 10° NNE 03:52:11 52° E 03:55:40 10° S visible
26 Sep 9.3 03:23:09 10° NE 03:26:05 23° E 03:28:58 10° SSE visible
27 Sep 10.3 02:59:06 10° ENE 02:59:53 11° E 03:00:40 10° ESE visible
29 Sep 8.3 03:38:03 10° NNE 03:41:25 36° E 03:44:41 10° SSE visible
30 Sep 9.8 03:12:53 10° NE 03:15:16 17° E 03:17:36 10° SE visible
02 Oct 7.2 03:53:08 10° NNE 03:56:41 61° E 04:00:09 10° S visible
